Regional Weather Roundup
Issued by NWS Burlington, VT

Current Version | Previous Version | Text Only | Print | Product List | Glossary On
Versions: 1 2 3 4 5 6 7 8 9 10 11 12 13 14 15 16 17 18 19 20 21 22 23 24 25 26 27 28 29 30 31 32 33 34 35 36 37 38 39 40 41 42 43 44 45 46 47 48 49 50
000
ASUS41 KBTV 301330
RWRBTV
VERMONT REGIONAL WEATHER ROUNDUP
NATIONAL WEATHER SERVICE BURLINGTON VT
900 AM EDT THU OCT 30 2014

NOTE: "FAIR" INDICATES FEW OR NO CLOUDS BELOW 12,000 FEET WITH NO
SIGNIFICANT WEATHER AND/OR OBSTRUCTIONS TO VISIBILITY.

* THESE REPORTS ARE NOT UNDER NWS QUALITY CONTROL AND/OR DO NOT
  REPORT WEATHER SUCH AS PRECIPITATION AND FOG.

VTZ001>019-301400-
_____VERMONT_____


CITY           SKY/WX    TMP DP  RH WIND       PRES   REMARKS
BURLINGTON     PTSUNNY   48  38  68 NW12      29.96R
MONTPELIER     CLOUDY    42  39  89 NW3       29.96R
MORRISVILLE    CLOUDY    44  39  82 NW7       29.96R
ST. JOHNSBURY*   N/A     41  39  93 MISG      29.91R
LYNDONVILLE*   FAIR      42  37  83 W6        29.93R
MIDDLEBURY*    LGT RAIN  46  45  99 CALM      29.95R
RUTLAND*       CLOUDY    46  36  66 CALM      29.95R
SPRINGFIELD    CLOUDY    40  39  97 CALM      29.94R
HIGHGATE*      FAIR      44  36  72 NW6       29.96R
NEWPORT*       RAIN      40  38  90 W8        29.94R
BENNINGTON     CLOUDY    46  39  76 W5        29.97R
MT. MANSFIELD*   N/A     32 N/A N/A NW10        N/A

_____LAKE CHAMPLAIN_____


CITY           SKY/WX    TMP DP  RH WIND       PRES   REMARKS
BURTON ISLAND*   N/A     46  37  71 NW7         N/A
COLCHESTER RF*   N/A     46  37  71 N17         N/A
DIAMOND ISL*     N/A     46  37  71 NW10        N/A

$$

NYZ007-026>031-035-052-083-301400-
_____NORTHERN NEW YORK_____


CITY           SKY/WX    TMP DP  RH WIND       PRES   REMARKS
PLATTSBURGH    CLOUDY    45  37  73 NW5       29.96R
SARANAC LAKE   CLOUDY    37  35  92 VRB5      29.94R
MASSENA        SUNNY     41  34  76 W7        30.01R
OGDENSBURG*    SUNNY     43  36  75 N6        30.01S
POTSDAM*       SUNNY     41  36  81 NW6       30.01R
WATERTOWN      CLOUDY    44  32  62 CALM      30.03R
FT DRUM        CLOUDY    39  32  75 N8        30.01R
ALBANY         PTSUNNY   49  39  68 W8        29.99R
GLENS FALLS    PTSUNNY   47  38  71 W3        29.96R

$$
NHZ002-005-011-301400-
_____NEW HAMPSHIRE_____


CITY           SKY/WX    TMP DP  RH WIND       PRES   REMARKS
LEBANON        CLOUDY    43  39  86 CALM      29.93R
KEENE          CLOUDY    37  30  75 CALM      29.96S
MT WASHINGTON  FOG       25  25 100 W31         N/A  VSB 0   WCI   8
PLYMOUTH       CLOUDY    40  40 100 CALM      29.93R
WHITEFIELD     CLOUDY    42  40  92 CALM      29.91R

$$

_____REGIONAL QUEBEC LOCATIONS_____


CITY           SKY/WX    TMP DP  RH WIND       PRES   REMARKS
MONTREAL       MOSUNNY   41  32  70 NW8       29.97R
QUEBEC CITY    MOSUNNY   41  36  81 SW9       29.89R
SHERBROOKE     CLOUDY    41  36  81 NW7       29.91R

_____REGIONAL ONTARIO LOCATIONS_____


CITY           SKY/WX    TMP DP  RH WIND       PRES   REMARKS
OTTAWA         MOSUNNY   39  34  81 W7        30.00R

______KEY______
VSB  - VISIBILITY IN MILES
WCI  - WIND CHILL INDEX
HX   - HEAT INDEX
$$
NNNN



USA.gov is the U.S. government's official web portal to all federal, state and local government web resources and services.